Leesburg, FL

6:23 AM EST on December 10, 2019 (GMT -0500)
Leesburg Regional

Weather History for KLEE - October, 2019

Change the Weather History Date:

Tuesday, October 29, 2019

  Actual Average Record
Temperature  
Mean Temperature 84 °F -  
Max Temperature 91 °F 79 °F 89 °F (1985)
Min Temperature 77 °F 58 °F 41 °F (1987)
Cooling Degree Days 19    
Growing Degree Days 34 (Base 50)    
Moisture  
Dew Point 74 °F    
Average Humidity 79    
Maximum Humidity 94    
Minimum Humidity 48    
Precipitation  
Precipitation 0.00 in - - ()
Sea Level Pressure  
Sea Level Pressure 30.08 in    
Wind  
Wind Speed 4 mph (East)    
Max Wind Speed 9 mph    
Max Gust Speed -    
Visibility 8 miles    
Events Fog , Thunderstorm    
Averages and records for this station are not official NWS values.
T = Trace of Precipitation, MM = Missing Value Source: NWS Daily Summary

Daily Weather History Graph

Daily Weather History Graph

Search for Another Location

Airport or City:

Astronomy

Oct. 29, 2019 Rise Set
Actual Time 7:37 AM EDT 6:44 PM EDT
Civil Twilight 7:12 AM EDT 7:08 PM EDT
Nautical Twilight 6:45 AM EDT 7:36 PM EDT
Astronomical Twilight 6:17 AM EDT 8:04 PM EDT
Moon 9:05 AM EDT (10/29) 8:13 PM EDT (10/29)
Length of Visible Light 11h 55m
Length of Day
11h 07m
Waxing Crescent, 3% of the Moon is Illuminated
Oct 29
Waxing Crescent
Nov 4
First Quarter
Nov 12
Full
Nov 19
Last Quarter
Nov 26
New

Hourly Weather History & Observations

Time (EDT) Temp. Heat Index Dew Point Humidity Pressure Visibility Wind Dir Wind Speed Gust Speed Precip Events Conditions
12:53 AM 79.0 °F - 75.0 °F 88% 30.07 in 10.0 mi East 4.6 mph - N/A   Partly Cloudy
1:19 AM 79.0 °F - 75.9 °F 90% 30.07 in 10.0 mi East 3.5 mph - N/A   Mostly Cloudy
1:53 AM 79.0 °F - 75.0 °F 88% 30.06 in 10.0 mi East 4.6 mph - N/A   Scattered Clouds
2:53 AM 79.0 °F - 75.0 °F 88% 30.06 in 10.0 mi East 4.6 mph - N/A   Partly Cloudy
3:53 AM 78.1 °F - 75.0 °F 90% 30.05 in 10.0 mi East 3.5 mph - N/A   Partly Cloudy
4:53 AM 78.1 °F - 75.0 °F 90% 30.05 in 9.0 mi East 3.5 mph - N/A   Partly Cloudy
5:53 AM 78.1 °F - 75.0 °F 90% 30.06 in 7.0 mi Calm Calm - N/A   Scattered Clouds
6:11 AM 77.0 °F - 75.0 °F 94% 30.07 in 7.0 mi Calm Calm - N/A   Mostly Cloudy
6:53 AM 78.1 °F - 75.0 °F 90% 30.08 in 7.0 mi Calm Calm - N/A   Overcast
7:50 AM 77.0 °F - 73.4 °F 89% 30.09 in 4.0 mi Calm Calm - N/A   Scattered Clouds
7:53 AM 77.0 °F - 73.9 °F 90% 30.09 in 4.0 mi Calm Calm - N/A   Scattered Clouds
8:32 AM 78.1 °F - 75.0 °F 90% 30.10 in 5.0 mi NNE 4.6 mph - N/A   Mostly Cloudy
8:41 AM 79.0 °F - 75.9 °F 90% 30.10 in 1.8 mi Variable 3.5 mph - N/A   Mostly Cloudy
8:45 AM 78.1 °F - 75.9 °F 93% 30.10 in 0.8 mi Calm Calm - N/A   Mostly Cloudy
8:53 AM 78.1 °F - 75.9 °F 93% 30.10 in 0.5 mi NE 3.5 mph - N/A Fog Fog
9:06 AM 80.1 °F 85.8 °F 77.0 °F 90% 30.10 in 2.0 mi Variable 3.5 mph - N/A   Mostly Cloudy
9:14 AM 80.1 °F 85.8 °F 77.0 °F 90% 30.10 in 9.0 mi East 4.6 mph - N/A   Mostly Cloudy
9:24 AM 80.1 °F 85.4 °F 75.9 °F 87% 30.11 in 10.0 mi East 5.8 mph - N/A   Scattered Clouds
9:53 AM 82.0 °F 89.4 °F 75.9 °F 82% 30.11 in 10.0 mi ESE 3.5 mph - N/A   Mostly Cloudy
10:25 AM 84.0 °F 92.6 °F 75.9 °F 76% 30.11 in 10.0 mi Variable 3.5 mph - N/A   Mostly Cloudy
10:53 AM 84.0 °F 92.6 °F 75.9 °F 76% 30.11 in 10.0 mi SSE 3.5 mph - N/A   Scattered Clouds
11:53 AM 86.0 °F 93.8 °F 73.9 °F 67% 30.12 in 10.0 mi SSE 5.8 mph - N/A   Scattered Clouds
12:53 PM 89.1 °F 96.0 °F 72.0 °F 57% 30.10 in 10.0 mi SSE 8.1 mph - N/A   Clear
1:53 PM 90.0 °F 96.9 °F 72.0 °F 55% 30.07 in 10.0 mi South 8.1 mph - N/A   Clear
2:53 PM 91.0 °F 96.6 °F 70.0 °F 50% 30.05 in 10.0 mi South 6.9 mph - N/A   Clear
3:53 PM 91.0 °F 95.6 °F 69.1 °F 48% 30.04 in 10.0 mi SE 4.6 mph - N/A   Clear
4:53 PM 91.0 °F 95.6 °F 69.1 °F 48% 30.03 in 10.0 mi ESE 3.5 mph - N/A   Clear
5:53 PM 90.0 °F 96.4 °F 71.1 °F 54% 30.04 in 10.0 mi ENE 9.2 mph - N/A   Mostly Cloudy
6:53 PM 86.0 °F 93.0 °F 73.0 °F 65% 30.04 in 10.0 mi East 6.9 mph - N/A   Partly Cloudy
7:38 PM 84.0 °F 91.2 °F 73.9 °F 72% 30.06 in 10.0 mi ENE 8.1 mph - N/A Thunderstorm Partly Cloudy
7:53 PM 82.9 °F 89.4 °F 73.9 °F 74% 30.06 in 10.0 mi East 6.9 mph - N/A   Partly Cloudy
8:53 PM 82.9 °F 90.2 °F 75.0 °F 77% 30.08 in 10.0 mi East 6.9 mph - N/A   Clear
9:53 PM 82.0 °F 87.9 °F 73.9 °F 76% 30.09 in 10.0 mi East 8.1 mph - N/A   Clear
10:53 PM 81.0 °F 86.7 °F 75.0 °F 82% 30.11 in 10.0 mi East 8.1 mph - N/A   Clear
11:53 PM 80.1 °F 85.1 °F 75.0 °F 85% 30.11 in 10.0 mi ENE 3.5 mph - N/A   Clear